Location: York
(31.8935°S, 116.7682°E)
Time: 09:48:23
(UTC+08:00)

ITUPSAT 1 - Visible Passes

Search period start: 26 July 2021 00:00
Search period end: 05 August 2021 00:00
Orbit: 701 x 712 km, 98.6° (Epoch: 25 July)

Date Brightness Start Highest point End Pass type
(mag) Time Alt. Az. Time Alt. Az. Time Alt. Az.
26 Jul ? 19:18:53 10° N 19:23:29 44° W 19:28:08 10° SSW visible
27 Jul ? 18:25:18 10° NE 18:29:53 45° ESE 18:34:30 10° S visible
27 Jul ? 20:05:11 10° NW 20:07:49 15° W 20:10:28 10° WSW visible
28 Jul ? 06:31:41 10° SE 06:34:46 17° E 06:37:48 10° NE visible
28 Jul ? 19:09:10 10° N 19:13:54 58° W 19:18:41 10° SSW visible
29 Jul ? 18:16:01 10° NE 18:20:22 35° ESE 18:24:46 10° S visible
29 Jul ? 19:54:49 10° NW 19:58:11 19° W 20:01:34 10° SW visible
30 Jul ? 06:22:57 10° ESE 06:25:07 13° E 06:27:14 10° ENE visible
30 Jul ? 18:59:31 10° N 19:04:20 76° WNW 19:09:12 10° SSW visible
31 Jul ? 18:06:50 10° NE 18:10:53 28° ESE 18:14:58 10° SSE visible
31 Jul ? 19:44:41 10° NNW 19:48:33 24° W 19:52:28 10° SW visible
01 Aug ? 18:49:58 10° NNE 18:54:47 84° ESE 18:59:39 10° S visible
02 Aug ? 17:57:44 10° ENE 18:01:24 22° ESE 18:05:04 10° SSE visible
02 Aug ? 19:34:42 10° NNW 19:38:56 31° W 19:43:13 10° SW visible
03 Aug ? 18:40:29 10° NNE 18:45:14 65° ESE 18:50:03 10° S visible
04 Aug ? 19:24:50 10° NNW 19:29:20 40° W 19:33:53 10° SSW visible
